Terminal Aerodrome Forecast
Issued by NWS La Crosse, WI

Home | Current Version | Previous Version | Text Only | Print | Product List | Glossary On
Versions: 1 2 3 4 5 6 7 8 9 10 11 12 13 14 15 16 17 18 19 20 21 22 23 24 25 26 27 28 29 30 31 32 33 34 35 36 37 38 39 40
000
FTUS43 KARX 252330
TAFLSE
TAF
KLSE 252330Z 2600/2624 28012G18KT P6SM BKN040
     FM260400 28013KT P6SM SCT040
     FM261500 28016G26KT P6SM SKC
     FM261800 29018G28KT P6SM BKN050=

USA.gov is the U.S. government's official web portal to all federal, state and local government web resources and services.